Tracking 31027 objects as of 19-Jul-2025
HD Live streaming from Space Station
objects crossing your sky now

ONEWEB-0385

Track ONEWEB-0385 now!
10-day predictions
ONEWEB-0385 is classified as:


NORAD ID: 49311
Int'l Code: 2021-090AJ
Perigee: 1,187.5 km
Apogee: 1,190.3 km
Inclination: 87.9 °
Period: 109.0 minutes
Semi major axis: 7559 km
RCS: Unknown
Launch date: October 14, 2021
Source: United Kingdom (UK)
Launch site: VOSTOCHNY COSMODROME (VOSTO)
Your satellite tracking list
DMSP 5D-2 F13 DEB
Track 1 satellite(s)




NASA's NSSDC Master Catalog

Two Line Element Set (TLE):
1 49311U 21090AJ  25199.65639633  .00000081  00000-0  16835-3 0  9992
2 49311  87.9273 340.8919 0001856 101.9927 258.1414 13.20770951185777
Source of the keplerian elements: AFSPC